Regional Weather Roundup
Issued by NWS

Home | Current Version | Previous Version | Graphics & Text | Print | Product List | Glossary On
Versions: 1 2 3 4 5 6 7 8 9 10 11 12 13 14 15 16 17 18 19 20 21 22 23 24 25 26 27 28 29 30 31 32 33 34 35 36 37 38 39 40 41 42 43 44 45 46 47 48 49 50
000
ASUS43 KMKX 270111
RWRWI

WISCONSIN REGIONAL WEATHER ROUNDUP
NATIONAL WEATHER SERVICE MILWAUKEE/SULLIVAN WI
800 PM CDT MON JUN 26 2017

NOTE: "FAIR" INDICATES FEW OR NO CLOUDS BELOW 12,000 FEET WITH NO
SIGNIFICANT WEATHER AND/OR OBSTRUCTIONS TO VISIBILITY.

WIZ001-002-006>008-014>016-023>028-270200-
NORTHWEST WISCONSIN

CITY           SKY/WX    TMP DP  RH WIND       PRES   REMARKS
SUPERIOR ARPT  NOT AVBL
ASHLAND        MOCLDY    60  48  64 W9        30.04F
HAYWARD        MOCLDY    62  47  57 CALM      30.07S
SIREN          CLEAR     63  49  60 CALM      30.09S
CUMBERLAND     PTCLDY    55  50  82 W5        30.10S
RICE LAKE      PTCLDY    57  50  77 CALM      30.11S
CHETEK         MOCLDY    54  53  95 CALM      30.10S
LADYSMITH      CLEAR     60  49  65 W6        30.09S
EAU CLAIRE     CLEAR     63  48  58 NW7       30.09R
MENOMONIE      CLEAR     63  49  59 NW5       30.10R
NEW RICHMOND   CLEAR     65  45  49 CALM      30.10F
OSCEOLA        PTCLDY    67  40  37 N5        30.12S
$$

WIZ003>005-009-010-017-018-270200-
NORTH CENTRAL WISCONSIN

CITY           SKY/WX    TMP DP  RH WIND       PRES   REMARKS
MANITOWISH WTR CLEAR     58  46  65 W7        30.04S
ARBOR VITAE    CLEAR     59  45  59 NW8       30.03S
WOODRUFF       CLEAR     59  45  59 NW8       30.03S
RHINELANDER    MOCLDY    59  45  59 W5        30.04S
EAGLE RIVER    PTCLDY    59  42  54 NW3       30.03S
LAND O LAKES   CLEAR     59  43  55 NW5       30.04S
PHILLIPS       PTCLDY    53  51  93 CALM      30.07F
TOMAHAWK       NOT AVBL
MEDFORD        CLEAR     58  46  65 NW8       30.07S
MERRILL        PTCLDY    58  47  64 N6        30.06R
$$

WIZ029-030-035-036-043>047-270200-
CENTRAL WISCONSIN

CITY           SKY/WX    TMP DP  RH WIND       PRES   REMARKS
WAUSAU         CLEAR     60  45  57 W10       30.03S
MOSINEE        PTCLDY    61  46  59 NW8       30.06S
MARSHFIELD     CLEAR     59  47  64 NW9       30.07R
STEVENS POINT  PTCLDY    60  43  54 CALM      30.06S
WAUPACA        CLEAR     64  46  50 CALM      30.05S
WAUTOMA        CLEAR     63  46  54 NW6       30.06S
WISC RAPIDS    MOCLDY    64  47  53 N8G17     30.07S
CAMP DOUGLAS   MOCLDY    59  50  72 CALM      30.06S
$$

WIZ011>013-019>022-031-037>040-048>050-270200-
NORTHEAST WISCONSIN

CITY           SKY/WX    TMP DP  RH WIND       PRES   REMARKS
ANTIGO         CLEAR     60  47  63 CALM      30.04S
SHAWANO        CLEAR     62  52  69 CALM      30.03S
OCONTO         CLEAR     58  51  77 CALM      30.03S
STURGEON BAY     N/A     57  52  83 W5          N/A
GREEN BAY      CLEAR     59  54  83 N3        30.04S
MANITOWOC      MOCLDY    58  50  75 NW9       30.04R
APPLETON       PTCLDY    57  46  67 NE5       30.03S
CLINTONVILLE   CLEAR     61  43  51 NW3       30.04S
OSHKOSH        PTCLDY    61  48  62 N10       30.05R
$$

WIZ032>034-041-042-053>061-270200-
SOUTHWEST WISCONSIN

CITY           SKY/WX    TMP DP  RH WIND       PRES   REMARKS
LA CROSSE      PTCLDY    70  46  42 N10       30.08S
SPARTA         MOCLDY    64  46  52 NW5       30.09S
VIROQUA        MOCLDY    63  46  53 NW6       30.09S
BOSCOBEL       CLEAR     67  43  41 N7        30.09R
PRAIRIE DU CHI CLEAR     66  39  36 NW6       30.09S
PLATTEVILLE    CLEAR     65  43  44 NW8       30.09S
$$

WIZ056-057-062-063-064-067-068-270200-
SOUTH CENTRAL WISCONSIN

CITY           SKY/WX    TMP DP  RH WIND       PRES   REMARKS
REEDSBURG      CLEAR     62  46  56 NW3       30.07S
BARABOO/DELLS  CLEAR     61  46  58 W3        30.08R
LONE ROCK      CLEAR     65  48  54 CALM      30.08R
MINERAL POINT  CLEAR     64  43  45 N8        30.09S
MADISON        PTCLDY    62  45  53 NW8       30.07R
MIDDLETON      CLEAR     63  45  52 N7        30.08S
WATERTOWN      NOT AVBL
MONROE         CLEAR     61  41  48 N7        30.08S
JANESVILLE     NOT AVBL
$$

WIZ051-052-058>065-066-070>072-270200-
SOUTHEAST WISCONSIN

CITY           SKY/WX    TMP DP  RH WIND       PRES   REMARKS
MILWAUKEE      MOCLDY    63  46  54 NW13G18   30.04R
WAUKESHA       MOCLDY    59  45  58 NW9       30.06R
MILWAUKEE/TIMM CLOUDY    61  45  55 NW9       30.06R
RACINE         PTCLDY    62  43  49 NW9       30.06R
KENOSHA        CLEAR     62  45  53 NW7       30.05R
FOND DU LAC    CLOUDY    62  47  57 N8        30.05S
SHEBOYGAN      PTCLDY    57  53  86 NW10      30.04R
WEST BEND      MOCLDY    55  50  82 NW6       30.05R
JUNEAU         PTCLDY    60  46  58 NW5       30.07R
$$

LSZ147-162-270200-
LAKE SUPERIOR

STATION/POSITION TIME  TEMP    WIND        PRES    WAVE
                       AIR SEA DIR/SP/G            HT/PER
                 (UTC) (F)     (DEG/KT/KT) (MB)    (FT/S)
W MID LAKE BUOY  0050   47 39  230/  6/  8 1016.3F   1/ 3
DEVILS ISLAND    0100   55     240/ 13/ 14 1016.7R
PORT WING        0100   57     220/  8/ 19 1017.3F
SAXON HARBOR     0040   64     260/  3/  7 1016.6S
$$

LMZ867-665-643>646-270200-
LAKE MICHIGAN

STATION/POSITION TIME  TEMP    WIND        PRES    WAVE
                       AIR SEA DIR/SP/G            HT/PER
                 (UTC) (F)     (DEG/KT/KT) (MB)    (FT/S)
CHAMBERS ISLAND  0040   61     280/  4/  8 1015.9S
S GREEN BAY BUOY 0100   61     320/  8/ 10 1016.4
N MID LAKE BUOY  0050   57 56  300/  4/  6 1016.2R   2/ 4
NORTHPORT PIER   0040   62     290/  3/  5 1015.9R
KEWAUNEE LAKESHO 0048   58     300/  5/  7 1016.3R
SHEBOYGAN LAKESH 0100   58     330/ 14/ 17 1016.9R
PORT WASHINGTON  0040   61     300/  8/ 13 1017.9R
ATWATER BUOY     0009   60 56  320/ 14/ 17 1017.0R
MILWAUKEE LAKESH 0050   61     340/  8/ 11   N/A
S MID LAKE BUOY  0050   60 61  350/ 10/ 14 1017.0R   3/ 5
KENOSHA   LAKESH 0100   63     320/  8/ 17 1016.9
$$

TC  - TEMPERATURE IN CELSIUS
VSB - VISIBILITY IN STATUTE MILES
WCI - WIND CHILL INDEX
HX  - HEAT INDEX





USA.gov is the U.S. government's official web portal to all federal, state and local government web resources and services.